Regional Weather Roundup
Issued by NWS Portland, ME

Current Version | Previous Version | Text Only | Print | Product List | Glossary Off
Versions: 1 2 3 4 5 6 7 8 9 10 11 12 13 14 15 16 17 18 19 20 21 22 23 24 25 26 27 28 29 30 31 32 33 34 35 36 37 38 39 40 41 42 43 44 45 46 47 48 49 50

000
ASUS41 KGYX 300705
RWRGYX
WEATHER ROUNDUP FOR MAINE AND NEW HAMPSHIRE
NATIONAL WEATHER SERVICE GRAY ME
300 AM EDT FRI SEP 30 2016

MEZ002-005-006-010-012-015-018-020-021-024-026-027-029-300800-
MAINE

CITY           SKY/WX    TMP DP  RH WIND       PRES   REMARKS
PORTLAND       PTCLDY    47  39  74 N3        30.53F
SANFORD        CLOUDY    40  39  97 CALM      30.52F
WISCASSET      PTCLDY    41  37  86 CALM      30.55F
ROCKLAND       PTCLDY    49  45  86 NE5       30.53F
FRYEBURG       MOCLDY    37  36  96 CALM      30.55F FOG
LEWISTONAUBURN CLOUDY    39  37  92 CALM      30.55S
AUGUSTA        CLOUDY    41  37  86 N6        30.55S
WATERVILLE     CLOUDY    42  38  85 N8        30.52F
BANGOR         CLOUDY    39  36  89 N3        30.55F
GREENVILLE       N/A     40  40 100 NE3       30.52F
MILLINOCKET    CLOUDY    34  32  92 CALM      30.57F
HOULTON        CLOUDY    30  30 100 CALM      30.54S
PRESQUE ISLE   FOG       30  28  93 CALM      30.56S VSB 3/4
FRENCHVILLE    FOG       34  32  92 NW9       30.54S VSB 3/4
CARIBOU        CLOUDY    35  34  96 CALM      30.54F
$$

NHZ002-005-008-009-011-012-014-300800-
NEW HAMPSHIRE

CITY           SKY/WX    TMP DP  RH WIND       PRES   REMARKS
PORTSMOUTH     MOCLDY    49  45  84 N5        30.49F
ROCHESTER      PTCLDY    45  40  82 N6        30.51F
NASHUA         MOCLDY    49  46  90 NW5       30.50F
MANCHESTER     MOCLDY    49  44  83 N6        30.49F
CONCORD        MOCLDY    45  42  89 NW3       30.51F
LACONIA        PTCLDY    45  42  89 CALM      30.53F
PLYMOUTH       FAIR      40  39  98 CALM      30.53F
BERLIN         FOG       36  33  89 CALM      30.54F VSB 1
WHITEFIELD     PTCLDY    41  37  86 CALM      30.51F
JAFFREY        PTCLDY    47  44  90 CALM      30.49F
KEENE          MOCLDY    45  44  97 CALM      30.50F
LEBANON        CLOUDY    44  43  96 CALM      30.51F
MT WASHINGTON  MOCLDY    46  -8  10 E10         N/A
$$

VTZ005-007-008-300800-
VERMONT

CITY           SKY/WX    TMP DP  RH WIND       PRES   REMARKS
ST JOHNSBURY     N/A     44  42  93 MISG      30.50F
MONTPELIER     PTCLDY    43  40  89 S3        30.54F
BURLINGTON     CLOUDY    56  43  61 SE7       30.47F
$$

MAZ007-012-024-CTZ003-RIZ002-NYZ038-NYZ072-300800-
SOUTHERN NEW ENGLAND AND NY

CITY           SKY/WX    TMP DP  RH WIND       PRES   REMARKS
BOSTON         MOCLDY    58  49  72 NE17      30.47S
WORCESTER      PTCLDY    49  45  86 NE12G20   30.45S
NANTUCKET      PTCLDY    60  54  80 NE16      30.38F
PROVIDENCE     CLOUDY    56  48  74 NE12      30.43F
HARTFORD       CLOUDY    53  47  79 N10       30.43F
ALBANY         CLOUDY    56  42  59 NE8       30.44F
NEW YORK CITY  CLOUDY    61  54  77 NE26G35   30.31F
$$

ANZ081-ANZ082-ANZ150-NHZ014-MEZ023>029-300800-
COASTAL MARINE OBSERVATIONS

STATION/POSITION TIME  TEMP    WIND        PRES    WAVE
                       AIR SEA DIR/SP/G            HT/PER
                 (UTC) (F)     (DEG/KT/KT) (MB)    (FT/S)
MOUNT DESERT ROC 0700   54      40/ 10/ 11 1033.7S
MATINICUS ROCK   0600   54      80/ 12/ 14 1033.5F
ISLE OF SHOALS   0600   57      60/ 19/ 21 1032.1F
JEFFREYS LEDGE   0638      61                N/A     8/ 8
CASHES LEDGE BUO 0650   56 58   80/ 17/ 19 1032.7F   7/ 8
GEORGES BANK BUO 0550   65 66              1028.2    8/ 7
$$

.............KEY..............
   WCI - WIND CHILL
   TC  - TEMPERATURE IN CELSIUS
   VSB - VISIBILITY IN MILES
   HX  - HEAT INDEX
   FAIR- INDICATES FEW OR NO CLOUDS BELOW 12,000 FT, WITH NO
         SIGNIFICANT WEATHER AND/OR OBSTRUCTIONS TO VISIBILITY.






USA.gov is the U.S. government's official web portal to all federal, state and local government web resources and services.